Location: Paris
(48.6709°N, 2.3750°E)
Time: 22:20:23
(UTC+02:00)

Gurwin Techsat 1B - Pass Details

Date: 29 June 2022
Orbit: 812 x 813 km, 98.8° (Epoch: 07 August)

Event Time Altitude Azimuth Distance (km) Brightness Sun altitude
Rises 04:45:06 0° 13° (NNE) 3,347 13.1 -8.6°
Reaches altitude 10° 04:47:27 10° 13° (NNE) 2,411 12.2 -8.3°
Maximum altitude 04:52:47 79° 288° (WNW) 834 8.7 -7.8°
Drops below altitude 10° 04:58:05 10° 202° (SSW) 2,394 10.5 -7.2°
Enters shadow 04:58:48 - 202° (SSW) 2,676 10.7 -7.1°
